{"data":{"norad_id":53842,"epoch":"2026-09-20T22:00:03.000096Z","epoch_age_seconds":48147,"freshness":"FRESH","line1":"1 53842U 22114AA  26263.91670139  .00013040  00000+0  69656-3 0  9999","line2":"2 53842  53.1610 136.7345 0001689 122.0049  63.7586 15.15437113  5800","mean_motion":15.15437113,"eccentricity":0.0001689,"inclination_deg":53.161,"raan_deg":136.7345,"arg_perigee_deg":122.0049,"mean_anomaly_deg":63.7586,"bstar":0.00069656,"rev_number":580,"period_min":95.022088851271,"perigee_km":518.48680481974,"apogee_km":520.81687789035,"semimajor_km":6897.788841355,"source":"CELESTRAK","updated_at":"2026-09-21T09:00:33.021337Z"}}